Regional Weather Roundup
Issued by NWS State College, PA

Home | Current Version | Previous Version | Graphics & Text | Print | Product List | Glossary Off
Versions: 1 2 3 4 5 6 7 8 9 10 11 12 13 14 15 16 17 18 19 20 21 22 23 24 25 26 27 28 29 30 31 32 33 34 35 36 37 38 39 40 41 42 43 44 45 46 47 48 49 50

000
ASUS41 KCTP 211210
RWRCTP

REGIONAL WEATHER ROUNDUP
NATIONAL WEATHER SERVICE STATE COLLEGE PA
800 AM EDT MON APR 21 2014

Note: "fair" indicates few or no clouds below 12,000 feet with no
significant weather and/or obstructions to visibility.

* = STATION THAT DOES NOT REPORT PRECIPITATION /E.G. RAIN...SNOW...ETC/
    THUNDER OR FOG.

PAZ002>004-007>009-013>016-020>023-029>032-211300-
WESTERN PENNSYLVANIA

CITY           SKY/WX    TMP DP  RH WIND       PRES   REMARKS
ERIE           SUNNY     55  30  38 S15       30.06S
MEADVILLE      NOT AVBL
FRANKLIN*      SUNNY     46  30  53 SE5       30.12F
NEW CASTLE     FAIR      49  33  54 CALM      30.11S
BEAVER COUNTY  SUNNY     50  32  50 SE5       30.10F
BUTLER*        SUNNY     48  34  57 SE3       30.12S
PITTSBURGH INT MOSUNNY   48  32  53 CALM      30.10F
PITTSBURGH     SUNNY     50  31  48 SE5       30.10S
INDIANA*       SUNNY     46  36  66 CALM      30.13S
LATROBE        SUNNY     46  36  66 CALM      30.12F
WASHINGTON CO* SUNNY     43  36  75 CALM      30.12S
$$

PAZ004>006-010>012-017>019-024>028-033>037-041-042-045-046-049>053-211300-
CENTRAL PENNSYLVANIA

CITY           SKY/WX    TMP DP  RH WIND       PRES   REMARKS
BRADFORD       SUNNY     43  30  60 SE3       30.12F
DUBOIS         SUNNY     47  33  58 E7        30.12S
CLEARFIELD     SUNNY     40  33  76 CALM      30.16S
JOHNSTOWN      SUNNY     45  31  58 S6        30.13S
ALTOONA        SUNNY     45  36  70 CALM      30.16F
STATE COLLEGE  SUNNY     46  30  53 CALM      30.18R
WILLIAMSPORT   SUNNY     44  32  62 SE6       30.19S
SELINSGROVE    SUNNY     43  35  73 CALM      30.21F
FT INDIANTOWN  MOSUNNY   40  36  85 CALM      30.22F
CAPITAL CITY   SUNNY     44  35  70 CALM      30.22F
HARRISBURG     MOSUNNY   45  32  60 E3        30.22F
YORK           SUNNY     42  36  79 CALM      30.22S
$$

PAZ038>040-043-044-047-048-054-055-060>062-067>071-211300-
EASTERN PENNSYLVANIA

CITY           SKY/WX    TMP DP  RH WIND       PRES   REMARKS
SCRANTON       SUNNY     43  25  49 VRB5      30.18F
MOUNT POCONO   SUNNY     41  18  39 W5        30.17F
ALLENTOWN      SUNNY     38  30  73 CALM      30.22F
QUAKERTOWN*    SUNNY     37  30  75 CALM      30.22F
READING        SUNNY     40  32  73 CALM      30.22F
LANCASTER      SUNNY     39  29  67 CALM      30.21F
COATESVILLE    NOT AVBL
POTTSTOWN      SUNNY     40  28  62 CALM      30.24F
BLUE BELL      SUNNY     45  30  57 CALM      30.22F
DOYLESTOWN     SUNNY     41  27  57 CALM      30.21F
WILLOW GROVE   NOT AVBL
NORTH PHILA    SUNNY     46  29  51 NE6       30.24F
PHILADELPHIA   MOSUNNY   46  29  51 NE6       30.23S
$$



USA.gov is the U.S. government's official web portal to all federal, state and local government web resources and services.